User: anonymous
Location: Shades State Park
(39.9310°N, 87.0690°W)
Time: 11:57:16
(UTC-04:00)
Language:

H-2A R/B - Orbit

View from above orbital plane
View from above orbital plane
View from above satellite
View from above satellite

Ground track
Ground track

The orbit data is extracted from the following two-line orbital elements,

1 27601U 02056E   14205.15064398  .00000062  00000-0  38523-4 0  1408
2 27601 098.4815 286.9560 0072786 189.0439 227.7881 14.31387900606286
Epoch (UTC): 24 July 2014 03:36:55
Eccentricity: 0.0072786
inclination: 98.4815°
perigee height: 735 km
apogee height: 839 km
right ascension of ascending node: 286.9560°
argument of perigee: 189.0439°
revolutions per day: 14.31387900
mean anomaly at epoch: 227.7881°
orbit number at epoch: 60628

The dashed part of the orbit path shows where the satellite is in the earth's shadow,  

DLR